Zurück zum Katalog

ESSAIM-2

AktivMilitärSSO
NORAD 28495·PAYLOAD·🇫🇷 France

Gestartet Dec 18, 2004 von Guiana Space Centre

Loading…

Nächste Überflüge (nächste 24 Stunden)

TLE

AktuellSource: Space-Track

Epoche: Sep 14, 2026, 04:45 UTC

1 28495U 04049D   26257.19820867  .00001021  00000-0  10873-3 0  9994
2 28495  98.2187 167.9487 0001846 130.4808 229.6571 14.91265215173807

Verfolge ESSAIM-2 in Echtzeit mit AllMySat

Download on the App Store